timestamp,wind_dir_avg,wind_spd_avg,wind_spd_max_dir,wind_spd_gust,battery_voltage,lat,long
2023-09-07 00:04:00+00:00,215.0,2.17,220.0,2.42,12.49,47.59359,-54.27349
2023-09-07 00:14:00+00:00,220.0,2.32,222.0,2.66,12.49,47.59359,-54.27349
2023-09-07 00:24:00+00:00,217.0,2.23,218.0,2.34,12.49,47.59359,-54.27349
2023-09-07 00:34:00+00:00,216.0,1.7,217.0,2.17,12.49,47.59359,-54.27349
2023-09-07 00:44:00+00:00,227.0,1.06,235.0,1.45,12.49,47.59359,-54.27349
2023-09-07 00:54:00+00:00,235.0,1.76,234.0,2.01,12.49,47.59359,-54.27349
2023-09-07 01:04:00+00:00,211.0,1.87,215.0,1.96,12.49,47.59359,-54.27349
2023-09-07 01:14:00+00:00,204.0,2.24,202.0,2.53,12.41,47.59359,-54.27349
2023-09-07 01:24:00+00:00,222.0,2.61,223.0,3.03,12.41,47.59359,-54.27349
2023-09-07 01:34:00+00:00,223.0,2.39,229.0,2.67,12.41,47.59359,-54.27349
2023-09-07 01:44:00+00:00,200.0,1.42,190.0,1.66,12.41,47.59359,-54.27349
2023-09-07 01:54:00+00:00,207.0,0.99,209.0,1.35,12.41,47.59359,-54.27349
2023-09-07 02:04:00+00:00,180.0,1.64,183.0,2.28,12.41,47.59359,-54.27349
2023-09-07 02:14:00+00:00,211.0,2.2,212.0,2.48,12.41,47.59359,-54.27349
2023-09-07 02:24:00+00:00,192.0,2.02,189.0,3.81,12.41,47.59359,-54.27349
2023-09-07 02:34:00+00:00,184.0,1.41,187.0,2.13,12.41,47.59359,-54.27349
2023-09-07 02:44:00+00:00,250.0,1.3,246.0,1.93,12.41,47.59359,-54.27349
2023-09-07 02:54:00+00:00,219.0,2.86,218.0,3.17,12.41,47.59359,-54.27349
2023-09-07 03:04:00+00:00,216.0,3.46,214.0,3.98,12.41,47.59359,-54.27349
2023-09-07 03:14:01+00:00,225.0,2.49,227.0,2.89,12.41,47.59359,-54.27349
2023-09-07 03:24:01+00:00,189.0,3.57,184.0,4.05,12.41,47.59359,-54.27349
2023-09-07 03:34:01+00:00,207.0,3.51,205.0,4.09,12.41,47.59359,-54.27349
2023-09-07 03:44:01+00:00,216.0,4.15,218.0,4.52,12.41,47.59359,-54.27349
2023-09-07 03:54:01+00:00,209.0,4.93,211.0,5.15,12.41,47.59359,-54.27349
2023-09-07 04:04:01+00:00,204.0,5.51,200.0,6.01,12.41,47.59359,-54.27349
2023-09-07 04:14:01+00:00,216.0,4.7,214.0,5.0,12.41,47.59359,-54.27349
2023-09-07 04:24:01+00:00,252.0,3.32,253.0,3.63,12.41,47.59359,-54.27349
2023-09-07 04:34:01+00:00,249.0,3.62,242.0,4.1,12.41,47.59359,-54.27349
2023-09-07 04:44:01+00:00,248.0,3.89,248.0,4.21,12.41,47.59359,-54.27349
2023-09-07 04:54:01+00:00,245.0,3.32,239.0,3.91,12.41,47.59359,-54.27349
2023-09-07 05:04:01+00:00,241.0,4.21,235.0,5.02,12.41,47.59359,-54.27349
2023-09-07 05:14:00+00:00,227.0,4.75,232.0,5.65,12.41,47.59359,-54.27349
2023-09-07 05:24:00+00:00,216.0,5.15,215.0,5.7,12.41,47.59359,-54.27349
2023-09-07 05:34:00+00:00,232.0,4.27,233.0,4.86,12.41,47.59359,-54.27349
2023-09-07 05:44:00+00:00,233.0,4.47,232.0,5.92,12.41,47.59359,-54.27349
2023-09-07 05:54:00+00:00,232.0,4.54,234.0,5.42,12.41,47.59359,-54.27349
2023-09-07 06:04:00+00:00,231.0,4.06,228.0,4.55,12.41,47.59359,-54.27349
2023-09-07 06:14:01+00:00,216.0,5.02,214.0,5.65,12.41,47.59359,-54.27349
2023-09-07 06:24:01+00:00,227.0,4.82,225.0,5.35,12.41,47.59359,-54.27349
2023-09-07 06:34:01+00:00,223.0,4.26,226.0,4.68,12.41,47.59359,-54.27349
2023-09-07 06:44:01+00:00,227.0,4.16,220.0,5.37,12.41,47.59359,-54.27349
2023-09-07 06:54:01+00:00,221.0,4.64,216.0,5.44,12.41,47.59359,-54.27349
2023-09-07 07:04:01+00:00,204.0,6.1,202.0,6.76,12.41,47.59359,-54.27349
2023-09-07 07:14:01+00:00,206.0,5.72,205.0,6.49,12.33,47.59359,-54.27349
2023-09-07 07:24:01+00:00,231.0,3.94,233.0,4.81,12.33,47.59359,-54.27349
2023-09-07 07:34:01+00:00,220.0,5.75,227.0,7.06,12.33,47.59359,-54.27349
2023-09-07 07:44:01+00:00,222.0,4.88,219.0,5.46,12.33,47.59359,-54.27349
2023-09-07 07:54:01+00:00,243.0,4.34,242.0,4.97,12.33,47.59359,-54.27349
2023-09-07 08:04:01+00:00,239.0,4.27,240.0,4.69,12.33,47.59359,-54.27349
2023-09-07 08:14:01+00:00,234.0,4.18,235.0,4.75,12.33,47.59359,-54.27349
2023-09-07 08:24:01+00:00,237.0,4.94,235.0,5.31,12.33,47.59359,-54.27349
2023-09-07 08:34:01+00:00,241.0,4.0,242.0,4.71,12.33,47.59359,-54.27349
2023-09-07 08:44:01+00:00,241.0,4.02,243.0,4.56,12.33,47.59359,-54.27349
2023-09-07 08:54:01+00:00,227.0,3.88,225.0,4.53,12.33,47.59359,-54.27349
2023-09-07 09:04:01+00:00,207.0,9.58,203.0,11.62,12.33,47.59359,-54.27349
2023-09-07 09:14:00+00:00,218.0,7.16,215.0,8.32,12.25,47.59359,-54.27349
2023-09-07 09:24:00+00:00,223.0,5.19,225.0,6.05,12.25,47.59359,-54.27349
2023-09-07 09:34:00+00:00,209.0,4.57,212.0,5.23,12.25,47.59359,-54.27349
2023-09-07 09:44:00+00:00,225.0,3.69,232.0,4.18,12.25,47.59359,-54.27349
2023-09-07 09:54:00+00:00,222.0,4.72,227.0,5.28,12.25,47.59359,-54.27349
2023-09-07 10:04:00+00:00,217.0,4.18,226.0,4.89,12.25,47.59359,-54.27349
2023-09-07 10:14:00+00:00,205.0,4.66,207.0,5.69,12.25,47.59359,-54.27349
2023-09-07 10:24:00+00:00,209.0,6.31,213.0,6.9,12.25,47.59359,-54.27349
2023-09-07 10:34:00+00:00,208.0,6.89,210.0,8.21,12.25,47.59359,-54.27349
2023-09-07 10:44:00+00:00,206.0,7.63,209.0,8.18,12.25,47.59359,-54.27349
2023-09-07 10:54:00+00:00,207.0,7.1,210.0,8.23,12.25,47.59359,-54.27349
2023-09-07 11:04:00+00:00,205.0,7.79,207.0,8.64,12.25,47.59359,-54.27349
2023-09-07 11:14:01+00:00,213.0,5.23,216.0,5.77,12.73,47.59359,-54.27349
2023-09-07 11:24:01+00:00,217.0,5.21,219.0,6.18,12.73,47.59359,-54.27349
2023-09-07 11:34:01+00:00,230.0,5.69,229.0,6.53,12.73,47.59359,-54.27349
2023-09-07 11:44:01+00:00,235.0,4.82,234.0,5.59,12.73,47.59359,-54.27349
2023-09-07 11:54:01+00:00,237.0,4.51,233.0,5.41,12.73,47.59359,-54.27349
2023-09-07 12:04:01+00:00,246.0,4.43,244.0,4.98,12.73,47.59359,-54.27349
2023-09-07 12:14:00+00:00,250.0,4.1,248.0,4.53,12.89,47.59359,-54.27349
2023-09-07 12:24:00+00:00,249.0,4.43,246.0,4.76,12.89,47.59359,-54.27349
2023-09-07 12:34:00+00:00,248.0,4.62,249.0,5.04,12.89,47.59359,-54.27349
2023-09-07 12:44:00+00:00,249.0,4.44,246.0,4.75,12.89,47.59359,-54.27349
2023-09-07 12:54:00+00:00,251.0,4.02,254.0,4.56,12.89,47.59359,-54.27349
2023-09-07 13:04:00+00:00,248.0,3.58,249.0,3.91,12.89,47.59359,-54.27349
2023-09-07 13:14:00+00:00,249.0,3.47,240.0,3.98,13.05,47.59359,-54.27349
2023-09-07 13:24:00+00:00,246.0,3.66,244.0,4.43,13.05,47.59359,-54.27349
2023-09-07 13:34:00+00:00,241.0,3.55,240.0,4.3,13.05,47.59359,-54.27349
2023-09-07 13:44:00+00:00,249.0,4.27,250.0,4.75,13.05,47.59359,-54.27349
2023-09-07 13:54:00+00:00,243.0,2.81,240.0,3.54,13.05,47.59359,-54.27349
2023-09-07 14:04:00+00:00,250.0,4.43,246.0,4.89,13.05,47.59359,-54.27349
2023-09-07 14:14:00+00:00,235.0,3.67,226.0,4.41,13.53,47.59359,-54.27349
2023-09-07 14:24:00+00:00,226.0,5.21,229.0,6.39,13.53,47.59359,-54.27349
2023-09-07 14:34:00+00:00,229.0,4.87,238.0,6.41,13.53,47.59359,-54.27349
2023-09-07 14:44:00+00:00,246.0,4.06,242.0,5.11,13.53,47.59359,-54.27349
2023-09-07 14:54:00+00:00,238.0,4.49,240.0,5.05,13.53,47.59359,-54.27349
2023-09-07 15:04:00+00:00,250.0,3.61,246.0,4.22,13.53,47.59359,-54.27349
2023-09-07 15:14:01+00:00,260.0,5.1,251.0,5.8,13.68,47.59359,-54.27349
2023-09-07 15:24:01+00:00,263.0,3.73,261.0,4.12,13.68,47.59359,-54.27349
2023-09-07 15:34:01+00:00,247.0,4.88,239.0,5.52,13.68,47.59359,-54.27349
2023-09-07 15:44:01+00:00,244.0,4.78,236.0,5.98,13.68,47.59359,-54.27349
2023-09-07 15:54:01+00:00,236.0,3.47,232.0,4.37,13.68,47.59359,-54.27349
2023-09-07 16:04:01+00:00,216.0,5.72,215.0,6.75,13.68,47.59359,-54.27349
2023-09-07 16:14:01+00:00,216.0,5.52,215.0,6.61,13.76,47.59359,-54.27349
2023-09-07 16:24:01+00:00,211.0,7.49,212.0,8.45,13.76,47.59359,-54.27349
2023-09-07 16:34:01+00:00,209.0,7.73,217.0,8.5,13.76,47.59359,-54.27349
2023-09-07 16:44:01+00:00,199.0,7.62,200.0,7.98,13.76,47.59359,-54.27349
2023-09-07 16:54:01+00:00,203.0,7.71,213.0,8.45,13.76,47.59359,-54.27349
2023-09-07 17:04:01+00:00,202.0,6.86,202.0,7.56,13.76,47.59359,-54.27349
2023-09-07 17:14:00+00:00,223.0,5.01,221.0,5.62,13.6,47.59359,-54.27349
2023-09-07 17:24:00+00:00,218.0,6.07,218.0,6.97,13.6,47.59359,-54.27349
2023-09-07 17:34:00+00:00,213.0,6.67,212.0,7.38,13.6,47.59359,-54.27349
2023-09-07 17:44:00+00:00,213.0,6.05,214.0,6.64,13.6,47.59359,-54.27349
2023-09-07 17:54:00+00:00,212.0,5.19,209.0,5.9,13.6,47.59359,-54.27349
2023-09-07 18:04:00+00:00,206.0,7.46,203.0,8.14,13.6,47.59359,-54.27349
2023-09-07 18:14:00+00:00,207.0,6.29,209.0,6.98,13.6,47.59359,-54.27349
2023-09-07 18:24:00+00:00,192.0,8.97,191.0,10.4,13.6,47.59359,-54.27349
2023-09-07 18:34:00+00:00,189.0,7.5,189.0,8.8,13.6,47.59359,-54.27349
2023-09-07 18:44:00+00:00,186.0,7.4,185.0,8.69,13.6,47.59359,-54.27349
2023-09-07 18:54:00+00:00,184.0,8.24,184.0,9.05,13.6,47.59359,-54.27349
2023-09-07 19:04:00+00:00,192.0,9.24,194.0,9.97,13.6,47.59359,-54.27349
2023-09-07 19:14:00+00:00,187.0,7.08,189.0,7.75,13.6,47.59359,-54.27349
2023-09-07 19:24:00+00:00,186.0,7.45,188.0,8.46,13.6,47.59359,-54.27349
2023-09-07 19:34:00+00:00,183.0,7.26,183.0,7.94,13.6,47.59359,-54.27349
2023-09-07 19:44:00+00:00,181.0,7.39,178.0,8.1,13.6,47.59359,-54.27349
2023-09-07 19:54:00+00:00,179.0,6.27,180.0,7.01,13.6,47.59359,-54.27349
2023-09-07 20:04:00+00:00,174.0,6.61,175.0,7.42,13.6,47.59359,-54.27349
2023-09-07 20:14:00+00:00,177.0,6.01,178.0,6.41,13.29,47.59359,-54.27349
2023-09-07 20:24:00+00:00,178.0,6.18,181.0,6.52,13.29,47.59359,-54.27349
2023-09-07 20:34:00+00:00,184.0,5.73,183.0,6.05,13.29,47.59359,-54.27349
2023-09-07 20:44:00+00:00,181.0,5.84,180.0,6.66,13.29,47.59359,-54.27349
2023-09-07 20:54:00+00:00,173.0,6.86,172.0,7.25,13.29,47.59359,-54.27349
2023-09-07 21:04:00+00:00,169.0,6.83,172.0,7.28,13.29,47.59359,-54.27349
2023-09-07 21:14:00+00:00,172.0,7.07,171.0,7.74,13.05,47.59359,-54.27349
2023-09-07 21:24:00+00:00,170.0,7.02,163.0,7.92,13.05,47.59359,-54.27349
2023-09-07 21:34:00+00:00,175.0,7.16,171.0,7.97,13.05,47.59359,-54.27349
2023-09-07 21:44:00+00:00,174.0,7.75,178.0,8.64,13.05,47.59359,-54.27349
2023-09-07 21:54:00+00:00,174.0,7.89,174.0,8.73,13.05,47.59359,-54.27349
2023-09-07 22:04:00+00:00,173.0,7.95,173.0,8.57,13.05,47.59359,-54.27349
2023-09-07 22:14:00+00:00,172.0,7.21,172.0,8.13,12.57,47.59359,-54.27349
2023-09-07 22:24:00+00:00,172.0,8.07,168.0,8.97,12.57,47.59359,-54.27349
2023-09-07 22:34:00+00:00,169.0,7.45,171.0,8.32,12.57,47.59359,-54.27349
2023-09-07 22:44:00+00:00,178.0,7.46,180.0,8.07,12.57,47.59359,-54.27349
2023-09-07 22:54:00+00:00,168.0,7.3,167.0,8.21,12.57,47.59359,-54.27349
2023-09-07 23:04:00+00:00,166.0,8.28,165.0,9.52,12.57,47.59359,-54.27349
2023-09-07 23:14:00+00:00,167.0,8.66,171.0,10.24,12.49,47.59359,-54.27349
2023-09-07 23:24:00+00:00,166.0,8.06,168.0,9.19,12.49,47.59359,-54.27349
2023-09-07 23:34:00+00:00,161.0,7.87,164.0,8.58,12.49,47.59359,-54.27349
2023-09-07 23:44:00+00:00,161.0,7.88,163.0,8.86,12.49,47.59359,-54.27349
2023-09-07 23:54:00+00:00,162.0,7.32,163.0,8.3,12.49,47.59359,-54.27349
